Theta_e
300 299 300 301 300 301 300 300 301 302 302 301 300 300 300 300 302 292 288 290 286 280 279 283 285 283 282 280 274 278 280 281 279 274 275 270 267 273 275 277 281 279 279 279 279 277 276 283 284 282 284 283 281 281
300 300 300 301 301 300 301 300 301 301 302 302 300 300 300 300 301 295 286 292 290 283 280 285 285 286 285 285 282 280 281 279 282 276 277 273 271 276 274 269 282 280 283 281 282 282 285 286 284 286 285 283 281 281
300 300 300 300 301 301 300 301 300 301 301 302 301 301 300 300 301 294 286 288 286 279 278 278 277 284 288 287 288 281 280 284 286 285 276 273 272 278 275 276 277 281 284 282 283 284 285 288 287 285 285 285 285 283
300 300 300 300 300 301 301 300 301 300 301 301 302 301 301 300 300 295 288 287 284 280 271 274 285 283 286 287 286 286 286 286 285 287 284 282 280 280 276 280 277 280 283 281 282 282 283 286 287 287 288 287 284 281
301 300 300 300 300 301 301 301 301 300 301 301 302 302 301 301 300 294 291 290 288 281 269 273 276 282 286 289 288 289 288 285 284 284 283 280 280 278 280 282 280 280 281 281 280 285 286 287 285 287 286 288 287 284
300 301 300 300 300 300 301 301 301 301 300 301 301 302 301 300 298 290 282 289 293 291 277 274 273 283 286 289 289 288 289 288 287 285 282 283 277 279 276 274 281 283 283 285 284 284 284 281 280 282 283 282 282 280
300 300 300 300 300 300 300 301 301 301 300 300 301 301 301 300 290 283 281 286 295 292 283 276 275 280 285 285 285 285 285 285 285 285 284 279 279 282 276 278 283 281 284 284 281 283 283 280 285 280 278 275 275 274
299 299 300 300 300 300 300 300 301 301 300 300 300 300 301 299 295 287 290 296 292 287 284 275 274 272 284 281 280 285 283 284 284 280 284 282 279 282 277 281 284 284 280 279 282 284 285 280 276 275 274 274 276 275
299 299 299 299 299 300 300 300 300 301 301 299 299 300 297 289 285 286 296 295 286 286 280 279 270 265 282 280 279 281 278 272 273 274 279 279 271 276 277 280 283 281 283 285 280 280 275 279 279 273 272 272 277 276
296 299 298 298 299 299 300 299 300 300 301 299 292 286 283 285 295 294 286 284 284 284 282 274 266 271 280 278 277 276 274 268 269 269 272 276 277 282 281 281 279 282 284 282 277 275 274 274 277 277 276 277 278 278
295 295 299 298 298 298 299 299 299 300 299 288 285 282 286 293 285 281 278 277 278 276 278 274 271 274 277 274 276 276 266 265 264 266 269 266 269 272 275 281 283 281 282 281 287 286 284 279 280 277 272 273 271 273
293 295 296 297 299 298 299 299 299 295 288 288 286 287 285 281 278 275 273 269 269 269 269 273 272 268 274 272 268 273 267 265 264 263 264 262 270 269 264 265 264 264 264 269 267 272 270 273 276 277 274 271 270 270
292 293 295 296 297 297 298 298 298 296 292 286 283 280 278 277 272 270 266 267 263 269 271 273 273 274 272 275 269 269 266 266 262 261 263 267 268 264 259 258 266 264 257 261 263 263 266 265 266 269 270 268 268 268
291 292 293 295 296 297 298 298 298 293 286 280 277 272 274 271 268 265 268 271 273 272 272 271 272 269 266 273 268 265 263 263 259 258 264 268 265 260 256 255 268 270 258 260 261 263 267 268 265 270 269 272 271 269
289 290 291 292 294 295 297 297 297 290 285 279 279 272 271 264 258 258 258 267 266 275 274 273 271 269 263 264 263 261 261 260 262 265 267 265 258 255 257 267 271 265 258 257 257 260 262 264 264 261 263 265 267 268
288 289 288 292 292 294 295 295 293 285 283 281 278 269 262 267 259 260 261 265 269 275 271 271 268 265 263 263 261 265 264 264 267 264 264 256 256 256 258 268 271 263 259 260 261 260 261 260 261 260 261 264 265 266
287 282 288 291 291 293 294 288 285 282 280 279 275 261 268 269 273 269 268 271 277 278 270 268 268 269 263 261 261 262 263 267 265 261 253 253 257 258 257 270 270 270 269 268 266 266 264 263 263 264 261 258 260 260
281 284 289 289 287 286 285 285 282 280 277 274 270 266 259 267 269 264 265 276 278 271 270 269 267 261 264 265 266 266 263 258 254 254 254 253 253 255 257 260 260 261 263 263 262 262 262 261 261 259 258 259 259 260
281 282 287 287 285 282 279 281 282 276 276 265 263 271 268 263 262 272 275 278 270 273 271 268 269 262 266 268 271 262 255 256 260 258 254 251 252 254 254 255 256 256 258 255 260 261 259 259 259 258 258 260 259 257
284 285 285 285 284 278 275 278 283 277 273 271 268 270 269 266 268 273 275 267 272 272 266 264 269 270 270 268 264 261 258 258 259 258 257 257 253 252 253 253 254 253 254 253 253 253 256 256 253 252 253 254 256 254
282 277 283 280 277 278 277 274 275 274 272 271 264 271 268 267 274 272 274 266 270 269 266 265 264 259 260 261 260 257 258 261 263 264 263 259 253 253 251 251 252 251 252 252 255 251 254 252 249 250 252 250 251 250
268 283 272 279 276 275 272 270 271 270 270 268 270 271 268 263 267 271 271 272 266 255 253 254 256 258 261 262 259 257 257 257 256 258 259 259 255 254 253 252 254 252 252 251 253 255 250 247 247 249 253 248 251 251
280 279 275 276 272 271 268 269 267 268 267 269 270 269 268 270 270 270 263 261 258 257 256 255 256 256 258 260 259 258 257 259 259 259 259 258 256 254 256 252 255 257 254 251 249 252 252 252 253 253 253 252 253 253
276 267 267 270 270 266 266 266 268 267 268 269 269 266 265 265 268 265 258 253 253 256 256 256 259 259 260 261 260 259 259 258 259 259 258 260 258 253 251 250 251 252 256 253 253 252 252 251 253 253 253 252 252 253
263 255 257 257 260 264 264 264 265 266 264 263 263 264 264 264 256 255 255 250 250 252 253 255 256 259 259 260 260 260 259 258 259 257 256 258 257 257 255 253 251 252 255 257 254 255 252 252 252 254 253 255 254 253
252 251 252 250 253 256 257 260 258 256 259 260 259 260 260 256 251 246 247 249 248 250 252 252 254 255 259 260 260 260 260 259 258 258 257 258 260 261 259 257 256 255 255 256 258 257 256 256 256 256 256 256 256 255
248 247 250 252 250 250 253 253 252 250 247 250 250 253 256 251 247 247 249 251 250 250 253 254 256 256 258 259 260 260 260 261 260 259 259 260 260 260 261 261 260 259 259 260 260 260 259 258 258 257 256 255 255 255
247 248 246 247 245 247 247 248 247 246 247 248 250 245 245 244 244 248 250 252 253 254 254 256 257 258 257 257 259 260 260 261 261 261 261 260 260 260 261 261 262 263 261 261 260 260 261 260 259 258 258 257 255 256
247 248 244 243 243 245 245 246 245 247 249 248 247 245 245 248 250 250 251 253 254 253 252 253 254 257 259 259 259 259 259 259 261 259 258 258 258 258 260 261 262 262 262 262 264 262 261 261 260 259 257 256 255 255
245 244 242 241 242 244 246 248 246 249 251 250 250 249 249 250 252 254 252 252 252 251 252 253 253 254 253 255 256 257 258 258 257 260 259 258 257 258 259 260 261 261 263 263 263 263 264 260 259 257 256 255 255 255
248 245 243 242 242 247 250 253 253 253 252 251 252 250 249 250 252 253 252 252 252 253 252 251 252 252 252 252 252 253 254 257 258 258 258 258 258 258 259 259 260 261 262 261 260 259 259 258 257 256 256 255 255 255
248 248 247 244 244 250 252 252 252 251 250 249 248 249 248 249 247 250 253 253 251 250 251 252 251 251 253 254 254 254 255 255 258 258 258 258 257 258 259 259 260 260 260 260 259 259 259 258 257 257 256 255 255 254
250 252 252 250 249 249 251 252 250 249 250 248 248 249 248 248 246 250 254 254 252 251 251 252 254 254 254 254 254 254 255 255 256 261 262 261 260 260 258 259 259 259 259 258 258 258 257 257 256 256 256 255 254 254
Wind_Speed
17 16 15 14 13 12 12 11 8 6 10 8 5 3 1 1 5 4 0 3 4 3 4 5 3 4 2 1 3 4 3 4 2 3 2 3 3 4 1 3 3 5 4 1 1 2 6 2 1 1 2 4 3 4
18 18 16 15 15 14 12 12 12 8 6 11 8 6 4 2 4 4 2 2 1 4 5 3 4 4 1 3 4 1 3 3 4 3 1 2 0 0 1 3 3 2 3 6 7 4 5 2 1 3 3 3 4 3
19 18 17 16 16 16 14 14 13 12 9 10 11 9 7 5 6 5 2 1 4 3 4 4 4 4 2 3 1 2 3 2 1 2 3 2 1 4 3 6 1 3 1 2 2 5 6 7 4 5 6 5 4 4
18 18 17 17 16 16 16 15 15 14 12 8 12 11 9 8 9 6 3 2 4 3 3 7 2 3 2 1 3 2 2 3 3 2 0 2 2 2 3 3 3 4 2 3 5 4 3 7 9 3 5 5 2 2
20 19 19 17 16 16 16 16 14 14 13 12 10 13 11 10 8 4 2 3 3 5 4 4 2 3 3 2 3 3 4 3 1 1 2 3 3 1 2 1 5 5 8 6 7 7 5 5 5 6 5 6 3 4
23 22 20 19 17 16 16 17 15 15 13 13 11 13 14 11 11 3 3 1 3 3 3 4 3 2 1 1 3 4 4 3 3 3 3 3 4 3 4 6 8 8 6 6 6 6 4 1 1 2 4 3 2 6
24 24 23 22 20 19 17 15 17 15 14 13 13 11 15 18 4 3 6 4 7 4 2 4 4 1 0 1 1 1 1 1 1 2 5 3 3 4 3 16 15 9 8 6 3 5 4 2 5 7 4 2 2 4
25 25 25 24 22 20 19 16 17 16 16 14 13 11 15 18 8 1 1 11 6 3 1 2 5 4 1 2 2 0 2 2 3 3 2 2 1 4 10 10 18 12 7 6 9 9 6 2 4 4 2 3 3 3
27 26 26 25 24 22 20 18 17 18 17 15 13 10 5 2 3 3 10 9 2 2 2 3 4 5 1 1 0 0 2 1 2 2 3 3 3 11 11 11 12 10 15 19 7 7 3 6 4 4 4 2 3 3
18 28 26 28 27 25 23 21 18 20 19 16 6 2 3 3 15 13 2 3 2 2 3 3 2 3 3 2 2 1 1 3 2 5 3 4 9 18 14 11 8 11 16 8 7 4 3 6 9 10 11 5 4 5
16 19 25 28 26 27 24 24 23 21 22 3 4 2 1 12 4 2 3 3 3 3 4 3 5 5 1 4 4 2 3 1 1 5 2 4 8 7 7 14 15 12 11 15 18 13 13 9 9 9 5 5 4 6
17 17 23 20 27 23 24 26 25 18 4 8 8 6 3 2 2 5 5 0 4 8 2 5 4 4 2 3 4 2 3 2 6 1 3 6 8 6 5 6 6 6 4 5 1 5 3 6 7 8 7 7 4 5
19 17 18 23 23 25 24 26 27 15 21 4 4 5 5 4 6 9 11 3 2 5 5 4 4 4 2 1 3 3 3 5 1 2 6 9 5 4 4 5 6 4 4 2 2 3 5 4 5 5 8 6 8 8
23 22 17 16 23 22 28 24 29 24 5 5 7 9 9 8 7 7 8 8 6 5 9 4 3 4 1 3 2 4 2 3 2 2 10 5 5 5 5 4 4 5 5 1 3 3 8 8 7 8 8 8 10 9
23 25 24 21 20 23 21 28 30 8 5 6 6 9 9 3 2 2 1 4 1 8 8 5 4 3 1 4 2 4 3 5 7 8 6 4 3 3 4 3 2 2 2 4 3 4 6 8 10 8 5 6 8 8
23 22 17 26 23 22 23 17 17 4 4 6 7 4 2 6 2 1 2 4 3 8 4 4 4 3 3 5 4 8 6 8 7 6 4 1 2 3 3 2 3 4 3 5 5 5 7 7 8 8 7 8 7 6
23 5 15 22 24 23 24 6 4 7 7 7 5 2 5 5 9 6 5 5 7 8 5 4 7 8 4 2 3 6 8 7 5 4 2 3 3 3 4 2 4 4 6 7 7 7 7 7 6 8 10 4 7 8
5 7 18 22 10 2 2 6 4 7 8 3 7 6 2 3 8 4 3 11 8 4 6 7 6 4 7 7 5 6 5 3 2 3 2 3 3 2 1 4 3 4 7 7 7 6 7 6 7 5 7 5 7 6
7 7 20 18 7 1 4 5 4 4 2 3 2 7 5 3 2 5 8 11 2 4 8 3 4 4 6 5 5 3 3 3 3 2 1 3 3 1 3 3 4 5 6 4 4 5 4 5 5 4 4 3 5 3
12 16 16 14 12 1 4 4 2 4 3 2 1 8 6 4 5 6 10 3 4 4 2 3 6 6 5 3 3 3 3 3 4 2 2 1 2 3 3 1 3 4 6 6 6 4 5 5 4 3 3 3 5 4
14 6 10 7 2 1 4 1 2 1 4 4 4 7 6 3 7 6 7 2 3 4 4 4 3 1 1 1 1 1 2 4 4 4 4 3 1 3 2 2 3 3 3 3 5 2 4 3 2 2 3 3 3 4
3 14 3 4 2 4 3 0 2 3 2 3 4 4 7 4 5 5 5 3 2 2 1 3 3 2 1 2 1 3 3 2 3 4 7 10 5 3 2 2 3 3 3 2 3 5 4 2 2 3 5 3 3 4
10 7 3 4 6 6 4 1 1 2 4 5 2 6 4 4 4 5 5 3 3 3 2 2 4 1 1 2 1 2 2 3 2 3 4 4 4 3 5 3 3 6 5 0 1 3 4 4 4 5 5 4 5 5
11 5 2 6 4 6 2 3 1 2 2 2 2 4 3 5 3 5 5 3 3 3 5 8 5 3 1 2 3 2 3 2 3 4 3 6 6 2 2 2 2 2 3 6 4 4 3 3 5 4 4 5 4 5
7 10 7 5 3 1 2 5 3 2 4 2 4 3 3 4 5 4 4 2 4 5 6 7 6 5 3 1 1 2 3 1 2 3 3 4 7 6 4 3 3 1 2 7 3 4 3 3 3 4 3 5 7 7
11 6 7 6 5 4 4 3 4 3 4 4 5 3 2 5 7 5 3 5 3 3 6 6 6 5 3 4 2 3 4 3 3 3 2 0 3 7 8 6 4 1 2 3 6 6 7 5 5 7 6 6 7 8
8 5 4 3 3 4 4 4 4 7 8 6 4 4 4 7 5 3 3 3 3 3 6 6 4 3 3 3 2 3 3 4 4 4 3 4 4 3 3 5 6 3 6 6 5 6 8 7 7 6 6 4 3 4
3 5 7 8 5 6 5 5 6 6 2 4 1 8 7 5 2 3 2 6 7 6 5 4 4 4 3 3 4 3 4 5 7 7 7 7 6 6 5 4 5 11 6 5 4 4 5 6 7 7 7 7 5 2
5 5 4 7 6 8 9 7 6 4 4 3 3 5 5 2 3 3 3 6 5 4 6 6 7 5 4 4 6 6 6 4 1 4 7 4 2 4 4 4 4 4 5 6 8 6 7 6 6 6 7 6 5 5
5 3 6 6 8 8 4 4 2 3 5 6 7 10 8 4 5 5 6 7 8 7 6 6 6 7 7 6 6 9 9 8 7 4 3 3 2 1 2 3 4 3 4 5 6 9 13 9 10 6 6 5 4 5
3 4 6 5 5 3 4 7 8 9 10 10 8 8 6 3 3 9 11 9 7 7 8 9 9 9 8 9 8 6 7 9 10 11 8 5 4 4 3 3 3 3 5 6 6 5 6 6 5 6 6 6 6 6
3 3 4 6 2 3 2 2 3 4 4 5 6 5 3 3 4 4 9 9 9 9 9 8 8 7 7 5 6 5 8 6 5 6 8 5 5 5 4 4 4 4 6 6 5 5 7 7 6 6 6 6 6 5
4 6 6 4 3 1 2 2 3 3 4 3 4 3 3 3 5 3 4 6 5 5 5 5 5 5 7 8 8 7 9 8 15 14 12 12 10 8 5 5 5 6 7 6 6 6 7 8 7 6 6 6 6 5
Wind_Direction
228 228 228 226 224 231 219 224 221 229 208 202 214 211 187 79 142 89 60 353 112 134 271 204 227 149 129 139 138 258 36 325 30 82 128 216 144 234 198 227 198 149 148 263 163 152 250 359 95 75 232 287 277 319
229 227 223 225 224 225 226 221 222 210 233 207 206 213 201 173 138 109 92 316 92 112 221 239 259 294 231 194 140 349 184 201 212 86 219 80 237 150 172 280 339 263 188 170 194 215 201 291 328 302 196 251 275 296
224 226 226 224 226 221 222 218 219 219 218 224 202 207 203 178 146 108 130 147 62 58 325 27 271 319 14 226 189 141 286 252 79 137 163 194 194 141 189 238 239 273 231 176 108 227 227 176 211 205 219 214 267 264
219 223 222 222 222 223 221 222 210 217 214 216 214 196 199 181 154 126 124 170 90 123 99 279 318 290 320 344 211 185 127 35 92 44 19 224 252 130 232 249 184 199 133 195 266 285 327 266 246 231 196 195 203 294
218 218 220 221 223 221 221 218 217 209 212 207 212 196 190 187 177 122 137 192 142 127 197 269 325 290 256 237 234 207 185 148 158 185 231 229 230 121 260 326 242 186 182 182 214 227 173 221 218 199 199 282 173 162
218 215 214 217 218 221 220 214 212 201 207 207 206 198 183 163 138 101 356 322 171 129 84 307 274 220 349 198 224 201 214 194 184 193 202 222 249 148 200 240 240 207 204 182 214 224 220 18 244 195 205 247 90 315
219 217 213 214 213 217 219 217 208 200 198 200 203 199 180 156 125 150 189 201 161 88 130 290 309 318 125 83 59 111 60 167 213 229 208 201 196 183 229 250 251 229 218 222 183 133 310 192 229 196 185 198 141 144
224 222 214 209 208 211 212 211 206 196 195 196 201 201 185 151 119 63 328 144 114 105 141 251 262 8 254 146 196 150 183 172 208 234 245 202 182 199 249 231 243 239 210 234 207 211 214 127 85 156 150 166 155 176
224 219 219 214 206 205 207 205 202 193 189 187 191 194 135 85 147 202 168 134 59 124 216 215 171 241 220 108 148 102 56 217 306 229 231 171 209 224 228 217 223 195 199 229 184 211 179 212 206 176 180 225 191 209
250 214 213 215 208 203 200 199 209 188 179 173 107 128 195 190 131 103 69 160 162 197 219 220 73 198 176 157 166 154 30 226 241 249 317 230 251 252 246 228 220 207 215 181 150 225 175 236 207 199 211 191 193 178
233 240 214 215 211 205 201 195 199 189 177 149 145 129 339 118 86 83 175 165 169 226 206 212 177 152 260 143 184 206 200 233 11 262 166 273 267 247 252 236 231 216 207 201 213 222 193 185 184 188 200 200 169 159
224 230 212 212 203 201 201 200 193 185 151 135 112 101 113 140 110 156 181 46 191 216 210 163 183 181 147 122 103 196 168 53 245 278 69 267 253 265 321 304 309 333 329 286 205 178 159 158 172 174 157 158 152 115
224 226 223 204 197 202 201 194 189 166 116 89 112 130 164 172 195 189 170 208 233 180 179 169 137 146 67 95 70 108 133 225 57 47 235 239 261 285 299 305 310 320 304 225 160 95 107 110 83 116 117 100 104 95
219 219 223 214 201 199 194 195 188 151 128 149 155 158 205 179 217 177 179 182 197 137 142 123 93 123 159 113 139 132 246 58 32 298 238 251 249 276 303 282 287 324 328 266 153 132 129 123 93 80 97 128 126 117
227 227 215 220 217 201 199 194 187 159 172 169 159 198 200 187 75 214 313 85 327 136 127 106 79 87 32 95 61 98 37 252 212 231 235 244 261 289 302 297 334 16 46 64 68 80 98 107 102 91 59 87 104 118
223 224 223 206 218 206 194 210 186 135 199 185 187 116 27 109 339 78 168 137 202 136 93 72 114 93 209 143 116 211 157 221 245 222 242 265 258 262 253 281 68 95 84 87 69 91 90 71 105 110 78 60 65 83
217 206 191 203 200 212 200 173 167 185 198 190 178 94 154 138 162 163 150 155 161 147 160 140 151 204 102 84 250 186 209 218 223 261 263 235 216 242 247 92 91 97 91 89 87 80 87 92 100 99 90 43 66 67
202 168 172 174 141 114 255 185 200 206 181 143 152 181 199 151 130 124 175 150 152 167 135 192 125 138 182 185 240 238 237 260 215 227 255 282 290 295 249 113 67 68 82 79 87 88 94 94 88 82 102 104 95 88
164 156 173 167 143 195 194 195 230 196 153 179 126 143 141 142 307 125 150 157 81 123 120 105 136 182 217 213 223 250 253 214 218 215 254 297 294 161 92 65 77 77 94 87 85 89 77 60 92 105 109 107 103 103
177 166 187 181 149 237 255 233 156 130 142 227 38 150 137 148 134 129 140 124 125 135 97 157 189 200 192 207 187 186 202 175 135 71 327 343 17 88 89 109 99 113 91 71 65 61 92 78 36 60 76 99 129 139
166 175 179 157 58 51 288 116 200 101 112 192 193 131 108 97 126 147 149 172 101 186 201 221 183 105 20 92 180 192 225 194 187 176 188 149 190 114 79 60 99 71 99 126 118 71 74 102 140 122 109 88 84 99
184 158 86 148 175 157 266 113 282 118 169 179 141 106 116 114 130 143 119 126 80 4 285 311 317 6 21 61 305 237 262 166 140 111 82 113 132 128 143 191 130 111 106 142 131 135 139 157 143 119 106 105 96 87
139 147 120 150 206 185 213 131 156 244 145 187 140 108 144 130 125 115 82 61 77 12 308 298 302 313 334 350 49 340 259 185 131 126 118 108 103 96 120 156 153 137 130 162 154 122 120 143 115 109 105 87 92 79
47 52 88 182 188 174 190 147 155 171 89 101 22 98 99 122 125 66 93 57 349 345 2 345 333 335 12 40 39 356 331 6 96 76 81 124 116 56 94 126 100 73 91 127 120 107 103 103 112 108 112 108 96 107
76 14 12 344 1 90 118 117 208 91 88 95 99 71 48 24 77 67 94 29 342 360 355 349 356 3 11 356 350 359 1 80 120 114 335 107 114 106 73 44 45 44 151 124 123 126 113 102 94 113 113 125 133 132
73 15 28 339 344 23 1 59 22 59 96 82 57 24 52 63 57 44 23 338 305 314 351 346 343 333 358 0 349 4 353 355 70 78 344 144 159 150 149 151 148 226 209 121 135 145 147 146 143 139 135 135 138 134
53 348 357 29 335 300 62 18 352 50 54 37 360 21 40 58 50 11 328 350 316 303 307 299 303 311 340 348 3 5 17 32 63 95 81 59 49 47 127 154 168 158 146 144 137 152 153 152 148 139 130 103 116 132
72 26 26 351 31 10 64 51 28 36 16 338 351 45 66 28 7 310 304 318 308 302 296 318 2 19 14 356 352 17 60 77 90 96 88 59 46 38 40 67 94 116 119 121 119 124 138 142 143 143 141 135 126 85
35 343 55 20 35 46 35 25 13 336 336 19 82 89 94 58 317 310 300 325 328 1 23 13 8 0 31 38 36 32 29 14 39 96 83 85 58 27 9 47 78 95 106 112 128 121 117 120 124 124 119 120 113 100
336 24 64 36 47 37 2 1 8 352 51 73 88 101 100 94 43 27 23 18 23 22 18 25 20 27 23 19 34 45 35 29 22 38 96 97 82 37 43 61 70 66 90 110 117 113 100 100 106 101 110 118 120 120
326 43 67 54 69 313 103 94 86 78 71 79 82 92 90 123 81 37 26 17 17 25 30 28 32 26 31 27 20 18 36 22 27 37 48 58 55 46 43 50 53 72 91 100 103 111 121 112 111 118 117 116 119 119
12 44 115 100 178 248 288 61 56 66 37 29 35 31 37 45 57 29 7 7 15 20 15 21 27 19 12 16 21 29 33 7 24 41 40 43 41 34 33 39 53 72 85 91 96 107 111 112 116 116 120 121 117 116
29 50 75 92 84 197 231 114 90 96 61 62 56 33 24 57 81 20 356 11 12 355 346 348 16 26 28 32 27 21 23 22 20 28 59 62 59 54 44 41 52 66 79 83 84 95 99 107 104 106 111 113 111 110